KO5MO-4 Weather Reports


time (UTC)temp
C
wind
direction
speed
KPH
gust
KPH
rain 1hr
cm
rain 24hr
cm
rain mn
cm
humidity
%
barometer
mb
20260502151834 28 90 9.7 16.1 0.00 0.00 0.00 27 1011.1
20260502150334 28 90 9.7 8.0 0.00 0.00 0.00 26 1011.0
20260502130334 17 45 1.6 3.2 0.00 0.00 0.00 38 1009.7
20260502122334 16 315 0.0 0.0 0.00 0.00 0.00 38 1009.1
20260502120334 16 225 0.0 0.0 0.00 0.00 0.00 38 1009.0
20260502115334 17 180 0.0 0.0 0.00 0.00 0.00 37 1009.1
20260502114834 17 180 0.0 0.0 0.00 0.00 0.00 37 1009.0
20260502113834 17 180 0.0 0.0 0.00 0.00 0.00 36 1009.0
20260502113334 17 180 0.0 0.0 0.00 0.00 0.00 35 1008.9
20260502112834 17 180 0.0 0.0 0.00 0.00 0.00 34 1008.8
20260502112334 18 180 0.0 0.0 0.00 0.00 0.00 35 1008.8
20260502111834 18 180 0.0 0.0 0.00 0.00 0.00 35 1008.8
20260502111334 18 270 0.0 0.0 0.00 0.00 0.00 33 1008.8
20260502110834 19 270 0.0 0.0 0.00 0.00 0.00 33 1008.9
20260502110334 19 225 0.0 0.0 0.00 0.00 0.00 31 1008.8
20260502105834 20 270 0.0 0.0 0.00 0.00 0.00 30 1008.8
20260502104334 19 315 1.6 1.6 0.00 0.00 0.00 31 1008.6
20260502101834 20 225 0.0 0.0 0.00 0.00 0.00 29 1008.5
20260502100334 20 315 1.6 1.6 0.00 0.00 0.00 29 1008.4
20260502091334 20 270 0.0 0.0 0.00 0.00 0.00 30 1008.2
20260502090833 20 270 0.0 0.0 0.00 0.00 0.00 30 1008.2
20260502070333 20 270 0.0 0.0 0.00 0.00 0.00 30 1007.5
20260502063833 20 225 0.0 0.0 0.00 0.00 0.00 29 1007.5
20260502061833 21 225 0.0 0.0 0.00 0.00 0.00 27 1007.4
20260502054333 21 180 0.0 0.0 0.00 0.00 0.00 27 1007.1
20260502043833 24 135 0.0 0.0 0.00 0.00 0.00 22 1006.8
20260502041833 25 180 0.0 0.0 0.00 0.00 0.00 21 1006.7
20260502040833 25 180 0.0 0.0 0.00 0.00 0.00 21 1006.5
20260502032333 26 225 0.0 0.0 0.00 0.00 0.00 21 1006.2
20260502031833 27 225 0.0 1.6 0.00 0.00 0.00 21 1006.0
20260502030833 27 180 0.0 0.0 0.00 0.00 0.00 20 1006.0
20260502025833 28 225 1.6 1.6 0.00 0.00 0.00 19 1005.9
20260502025333 28 225 3.2 4.8 0.00 0.00 0.00 19 1005.8
20260502024833 28 225 3.2 1.6 0.00 0.00 0.00 19 1005.8
20260502024333 28 225 3.2 4.8 0.00 0.00 0.00 19 1005.7
20260502023333 28 225 8.0 6.4 0.00 0.00 0.00 18 1005.6
20260502022833 29 225 6.4 6.4 0.00 0.00 0.00 18 1005.5
20260502021833 29 225 6.4 8.0 0.00 0.00 0.00 18 1005.5
20260502020333 30 225 6.4 6.4 0.00 0.00 0.00 18 1005.3
20260502015833 30 225 6.4 6.4 0.00 0.00 0.00 18 1005.3
20260502015333 30 180 6.4 8.0 0.00 0.00 0.00 18 1005.2
20260502014333 31 270 6.4 4.8 0.00 0.00 0.00 18 1005.3
20260502013833 31 225 4.8 4.8 0.00 0.00 0.00 17 1005.2
20260502013333 32 225 6.4 6.4 0.00 0.00 0.00 17 1005.3
20260502012833 32 270 9.7 9.7 0.00 0.00 0.00 17 1005.3
20260502012333 32 180 3.2 3.2 0.00 0.00 0.00 17 1005.3
20260502011333 32 270 1.6 4.8 0.00 0.00 0.00 17 1005.3
20260502005833 33 270 4.8 8.0 0.00 0.00 0.00 17 1005.3
20260502005333 33 270 6.4 6.4 0.00 0.00 0.00 17 1005.4
20260502004833 33 270 8.0 8.0 0.00 0.00 0.00 17 1005.4
20260502003833 32 270 3.2 4.8 0.00 0.00 0.00 18 1005.4
20260502003333 32 270 6.4 4.8 0.00 0.00 0.00 18 1005.4
20260502002833 33 270 8.0 9.7 0.00 0.00 0.00 18 1005.4
20260502002333 33 270 4.8 8.0 0.00 0.00 0.00 18 1005.4
20260502001833 33 225 9.7 9.7 0.00 0.00 0.00 18 1005.4
20260502001333 33 225 8.0 6.4 0.00 0.00 0.00 18 1005.4
20260502000333 33 270 11.3 9.7 0.00 0.00 0.00 17 1005.5
20260501235833 33 225 8.0 8.0 0.00 0.00 0.00 17 1005.5
20260501235333 34 315 8.0 8.0 0.00 0.00 0.00 17 1005.6
20260501234833 35 225 11.3 8.0 0.00 0.00 0.00 17 1005.6
20260501234333 33 225 3.2 1.6 0.00 0.00 0.00 17 1005.6
20260501233833 33 270 4.8 6.4 0.00 0.00 0.00 18 1005.6
20260501232833 33 315 6.4 6.4 0.00 0.00 0.00 17 1005.7
20260501232333 33 270 16.1 12.9 0.00 0.00 0.00 17 1005.6
20260501231833 33 225 11.3 12.9 0.00 0.00 0.00 17 1005.6
20260501231333 32 270 4.8 4.8 0.00 0.00 0.00 18 1005.7
20260501230333 33 270 6.4 4.8 0.00 0.00 0.00 18 1005.8
20260501225833 33 270 9.7 6.4 0.00 0.00 0.00 18 1005.8
20260501223833 33 270 6.4 3.2 0.00 0.00 0.00 17 1006.0
20260501222333 32 225 12.9 6.4 0.00 0.00 0.00 17 1006.3
20260501221333 32 180 9.7 9.7 0.00 0.00 0.00 18 1006.4
20260501220833 32 315 6.4 3.2 0.00 0.00 0.00 19 1006.4
20260501215833 32 225 11.3 11.3 0.00 0.00 0.00 19 1006.7
20260501215333 32 270 12.9 12.9 0.00 0.00 0.00 19 1006.7
20260501214333 33 270 11.3 11.3 0.00 0.00 0.00 19 1006.8
20260501213833 33 270 9.7 9.7 0.00 0.00 0.00 19 1006.9
20260501212333 33 315 4.8 3.2 0.00 0.00 0.00 19 1007.2
20260501211833 33 225 11.3 9.7 0.00 0.00 0.00 19 1007.2
20260501210833 33 225 8.0 6.4 0.00 0.00 0.00 19 1007.3
20260501205833 32 270 3.2 4.8 0.00 0.00 0.00 19 1007.5
20260501203833 33 315 4.8 4.8 0.00 0.00 0.00 19 1007.6
20260501202833 31 135 0.0 3.2 0.00 0.00 0.00 21 1007.8
20260501200833 32 90 3.2 4.8 0.00 0.00 0.00 20 1007.9
20260501195333 32 270 1.6 1.6 0.00 0.00 0.00 21 1008.0
20260501192833 31 180 6.4 4.8 0.00 0.00 0.00 21 1008.4
20260501192333 33 225 8.0 8.0 0.00 0.00 0.00 20 1008.4
20260501190833 33 225 4.8 6.4 0.00 0.00 0.00 20 1008.7
20260501190333 30 270 4.8 3.2 0.00 0.00 0.00 23 1008.7
20260501185833 30 180 6.4 6.4 0.00 0.00 0.00 23 1008.8
20260501185333 30 270 6.4 4.8 0.00 0.00 0.00 24 1008.9
20260501184333 31 0 4.8 4.8 0.00 0.00 0.00 23 1008.9
20260501182833 30 270 3.2 6.4 0.00 0.00 0.00 24 1009.2
20260501181833 30 270 6.4 4.8 0.00 0.00 0.00 24 1009.4
20260501175833 30 270 6.4 1.6 0.00 0.00 0.00 24 1009.6
20260501175333 30 315 3.2 3.2 0.00 0.00 0.00 24 1009.6
20260501173833 30 315 14.5 11.3 0.00 0.00 0.00 25 1009.7
20260501173333 29 180 6.4 6.4 0.00 0.00 0.00 26 1009.7
20260501172333 28 270 6.4 11.3 0.00 0.00 0.00 27 1009.8
20260501171833 30 270 9.7 9.7 0.00 0.00 0.00 25 1009.8
20260501170333 28 270 6.4 4.8 0.00 0.00 0.00 28 1009.9
20260501165833 28 180 1.6 3.2 0.00 0.00 0.00 28 1009.9
20260501165333 27 270 1.6 1.6 0.00 0.00 0.00 28 1009.8
20260501164833 27 135 3.2 1.6 0.00 0.00 0.00 29 1009.9
20260501163833 27 270 6.4 6.4 0.00 0.00 0.00 29 1009.8
20260501162833 27 225 4.8 4.8 0.00 0.00 0.00 29 1009.8
20260501161833 26 135 4.8 3.2 0.00 0.00 0.00 30 1009.8
20260501155333 27 270 6.4 8.0 0.00 0.00 0.00 29 1009.6